| time (UTC) | temp F | wind direction | speed MPH | gust MPH | rain 1hr in | rain 24hr in | rain mn in | humidity % | barometer mb |
| 20260906140030 | 71 | 155 | 6.0 | 13.0 | 0.00 | 0.00 | 0.00 | 84 | 1017.5 |
| 20260906134518 | 70 | 171 | 5.0 | 10.0 | 0.00 | 0.00 | 0.00 | 86 | 1017.4 |
| 20260906133016 | 69 | 109 | 6.0 | 12.0 | 0.00 | 0.00 | 0.00 | 88 | 1017.3 |
| 20260906131530 | 69 | 158 | 2.0 | 8.0 | 0.00 | 0.00 | 0.00 | 89 | 1017.2 |
| 20260906130015 | 69 | 167 | 5.0 | 9.0 | 0.00 | 0.00 | 0.00 | 90 | 1017.0 |
| 20260906124513 | 69 | 175 | 3.0 | 7.0 | 0.00 | 0.00 | 0.00 | 90 | 1017.0 |
| 20260906123043 | 68 | 155 | 3.0 | 8.0 | 0.00 | 0.00 | 0.00 | 91 | 1017.1 |
| 20260906121540 | 68 | 176 | 5.0 | 10.0 | 0.00 | 0.00 | 0.00 | 91 | 1017.0 |
| 20260906120037 | 68 | 142 | 2.0 | 6.0 | 0.00 | 0.00 | 0.00 | 91 | 1016.8 |
| 20260906114537 | 68 | 115 | 0.0 | 4.0 | 0.00 | 0.00 | 0.00 | 91 | 1016.8 |
| 20260906113039 | 67 | 172 | 0.0 | 3.0 | 0.00 | 0.00 | 0.00 | 91 | 1016.5 |
| 20260906111533 | 67 | 170 | 0.0 | 6.0 | 0.00 | 0.00 | 0.00 | 91 | 1016.3 |
| 20260906110030 | 67 | 214 | 1.0 | 5.0 | 0.00 | 0.00 | 0.00 | 92 | 1016.1 |
| 20260906104535 | 67 | 169 | 4.0 | 6.0 | 0.00 | 0.00 | 0.00 | 93 | 1016.1 |
| 20260906103028 | 67 | 159 | 4.0 | 10.0 | 0.00 | 0.00 | 0.00 | 93 | 1016.0 |
| 20260906101527 | 67 | 182 | 1.0 | 10.0 | 0.00 | 0.00 | 0.00 | 93 | 1016.1 |
| 20260906100058 | 67 | 165 | 5.0 | 9.0 | 0.00 | 0.00 | 0.00 | 93 | 1015.7 |
| 20260906094557 | 66 | 195 | 3.0 | 5.0 | 0.00 | 0.00 | 0.00 | 94 | 1015.7 |
| 20260906093035 | 65 | 173 | 1.0 | 3.0 | 0.00 | 0.00 | 0.00 | 94 | 1015.4 |
| 20260906091524 | 64 | 180 | 0.0 | 2.0 | 0.00 | 0.00 | 0.00 | 93 | 1015.3 |
| 20260906090023 | 64 | 216 | 0.0 | 1.0 | 0.00 | 0.00 | 0.00 | 93 | 1015.2 |
| 20260906084530 | 65 | 217 | 0.0 | 1.0 | 0.00 | 0.00 | 0.00 | 93 | 1015.3 |
| 20260906083019 | 65 | 196 | 0.0 | 2.0 | 0.00 | 0.00 | 0.00 | 93 | 1015.1 |
| 20260906081517 | 67 | 207 | 0.0 | 0.0 | 0.00 | 0.00 | 0.00 | 93 | 1015.3 |
| 20260906080027 | 67 | 194 | 0.0 | 0.0 | 0.00 | 0.00 | 0.00 | 93 | 1015.4 |
| 20260906074514 | 68 | 256 | 0.0 | 2.0 | 0.00 | 0.00 | 0.00 | 93 | 1015.5 |
| 20260906073013 | 67 | 248 | 0.0 | 0.0 | 0.00 | 0.00 | 0.00 | 92 | 1015.4 |
| 20260906071512 | 67 | 248 | 0.0 | 0.0 | 0.00 | 0.00 | 0.00 | 92 | 1015.3 |
| 20260906070010 | 67 | 250 | 0.0 | 0.0 | 0.00 | 0.00 | 0.00 | 93 | 1015.6 |
| 20260906064514 | 66 | 250 | 0.0 | 0.0 | 0.00 | 0.00 | 0.00 | 92 | 1015.6 |
| 20260906063008 | 67 | 269 | 0.0 | 1.0 | 0.00 | 0.00 | 0.00 | 93 | 1015.6 |
| 20260906061512 | 66 | 220 | 0.0 | 0.0 | 0.00 | 0.00 | 0.00 | 93 | 1015.7 |
| 20260906060008 | 66 | 220 | 0.0 | 0.0 | 0.00 | 0.00 | 0.00 | 93 | 1015.7 |
| 20260906054506 | 66 | 216 | 0.0 | 0.0 | 0.00 | 0.00 | 0.00 | 92 | 1015.7 |
| 20260906053004 | 66 | 216 | 0.0 | 0.0 | 0.00 | 0.00 | 0.00 | 92 | 1015.7 |
| 20260906051506 | 66 | 216 | 0.0 | 0.0 | 0.00 | 0.00 | 0.00 | 92 | 1015.6 |
| 20260906050033 | 66 | 216 | 0.0 | 0.0 | 0.00 | 0.00 | 0.00 | 92 | 1015.6 |
| 20260906044532 | 66 | 216 | 0.0 | 0.0 | 0.00 | 0.00 | 0.00 | 92 | 1015.8 |
| 20260906043031 | 67 | 227 | 0.0 | 0.0 | 0.00 | 0.00 | 0.00 | 92 | 1015.9 |
| 20260906041527 | 67 | 227 | 0.0 | 0.0 | 0.00 | 0.00 | 0.00 | 91 | 1015.9 |
| 20260906040030 | 68 | 253 | 0.0 | 1.0 | 0.00 | 0.00 | 0.00 | 92 | 1015.9 |
| 20260906034534 | 67 | 253 | 0.0 | 0.0 | 0.00 | 0.00 | 0.00 | 91 | 1015.8 |
| 20260906033028 | 68 | 254 | 1.0 | 3.0 | 0.00 | 0.00 | 0.00 | 90 | 1015.8 |
| 20260906031519 | 68 | 241 | 0.0 | 0.0 | 0.00 | 0.00 | 0.00 | 90 | 1015.5 |
| 20260906030016 | 69 | 240 | 0.0 | 1.0 | 0.00 | 0.00 | 0.00 | 90 | 1015.4 |
| 20260906024514 | 69 | 217 | 0.0 | 1.0 | 0.00 | 0.00 | 0.00 | 91 | 1015.0 |
| 20260906023013 | 69 | 217 | 0.0 | 0.0 | 0.00 | 0.00 | 0.00 | 89 | 1014.7 |
| 20260906021510 | 69 | 217 | 0.0 | 0.0 | 0.00 | 0.00 | 0.00 | 89 | 1014.4 |
| 20260906020009 | 69 | 187 | 0.0 | 2.0 | 0.00 | 0.00 | 0.00 | 89 | 1014.2 |
| 20260906014520 | 70 | 223 | 0.0 | 2.0 | 0.00 | 0.00 | 0.00 | 88 | 1013.8 |
| 20260906013008 | 70 | 220 | 0.0 | 2.0 | 0.00 | 0.00 | 0.00 | 87 | 1013.6 |
| 20260906011600 | 71 | 217 | 0.0 | 2.0 | 0.00 | 0.00 | 0.00 | 86 | 1013.6 |
| 20260906011505 | 71 | 222 | 0.0 | 2.0 | 0.00 | 0.00 | 0.00 | 86 | 1013.5 |
| 20260906010111 | 72 | 213 | 0.0 | 0.0 | 0.00 | 0.00 | 0.00 | 85 | 1013.5 |
| 20260906004554 | 73 | 242 | 0.0 | 0.0 | 0.00 | 0.00 | 0.00 | 82 | 1013.3 |
| 20260906003108 | 74 | 223 | 0.0 | 3.0 | 0.00 | 0.00 | 0.00 | 81 | 1013.0 |
| 20260906001548 | 76 | 240 | 0.0 | 3.0 | 0.00 | 0.00 | 0.00 | 77 | 1013.0 |
| 20260906000043 | 78 | 211 | 1.0 | 9.0 | 0.00 | 0.00 | 0.00 | 73 | 1012.8 |
| 20260905234542 | 79 | 115 | 3.0 | 11.0 | 0.00 | 0.00 | 0.00 | 72 | 1012.9 |
| 20260905233042 | 79 | 120 | 6.0 | 11.0 | 0.00 | 0.00 | 0.00 | 72 | 1012.8 |
| 20260905231541 | 79 | 119 | 4.0 | 13.0 | 0.00 | 0.00 | 0.00 | 72 | 1012.7 |
| 20260905230039 | 79 | 86 | 7.0 | 16.0 | 0.00 | 0.00 | 0.00 | 71 | 1012.7 |
| 20260905224538 | 79 | 133 | 6.0 | 10.0 | 0.00 | 0.00 | 0.00 | 72 | 1012.8 |
| 20260905223037 | 79 | 132 | 5.0 | 11.0 | 0.00 | 0.00 | 0.00 | 71 | 1012.6 |
| 20260905221534 | 80 | 123 | 8.0 | 14.0 | 0.00 | 0.00 | 0.00 | 70 | 1012.6 |
| 20260905220041 | 80 | 136 | 7.0 | 13.0 | 0.00 | 0.00 | 0.00 | 71 | 1012.6 |
| 20260905214531 | 80 | 127 | 8.0 | 13.0 | 0.00 | 0.00 | 0.00 | 69 | 1012.8 |
| 20260905213039 | 80 | 140 | 6.0 | 11.0 | 0.00 | 0.00 | 0.00 | 71 | 1013.1 |
| 20260905211528 | 81 | 101 | 4.0 | 11.0 | 0.00 | 0.00 | 0.00 | 70 | 1013.4 |
| 20260905210023 | 82 | 113 | 5.0 | 8.0 | 0.00 | 0.00 | 0.00 | 69 | 1013.6 |
| 20260905204521 | 81 | 122 | 5.0 | 9.0 | 0.00 | 0.00 | 0.00 | 68 | 1013.9 |
| 20260905203021 | 83 | 148 | 3.0 | 6.0 | 0.00 | 0.00 | 0.00 | 66 | 1014.1 |
| 20260905201519 | 82 | 134 | 1.0 | 7.0 | 0.00 | 0.00 | 0.00 | 66 | 1014.3 |
| 20260905200019 | 83 | 171 | 3.0 | 7.0 | 0.00 | 0.00 | 0.00 | 64 | 1014.4 |
| 20260905194517 | 84 | 122 | 2.0 | 9.0 | 0.00 | 0.00 | 0.00 | 61 | 1014.3 |
| 20260905193015 | 84 | 186 | 3.0 | 11.0 | 0.00 | 0.00 | 0.00 | 63 | 1014.0 |
| 20260905191510 | 83 | 130 | 6.0 | 11.0 | 0.00 | 0.00 | 0.00 | 66 | 1014.0 |
| 20260905190011 | 82 | 115 | 6.0 | 8.0 | 0.00 | 0.00 | 0.00 | 67 | 1014.2 |
| 20260905184505 | 82 | 172 | 2.0 | 7.0 | 0.00 | 0.00 | 0.00 | 66 | 1014.6 |
| 20260905183001 | 81 | 128 | 2.0 | 8.0 | 0.00 | 0.00 | 0.00 | 69 | 1014.7 |
| 20260905181536 | 80 | 142 | 2.0 | 9.0 | 0.00 | 0.00 | 0.00 | 70 | 1014.6 |
| 20260905180031 | 80 | 100 | 3.0 | 7.0 | 0.00 | 0.00 | 0.00 | 71 | 1014.8 |
| 20260905174530 | 80 | 121 | 1.0 | 6.0 | 0.00 | 0.00 | 0.00 | 71 | 1014.9 |
| 20260905173026 | 79 | 147 | 0.0 | 9.0 | 0.00 | 0.00 | 0.00 | 71 | 1015.2 |
| 20260905171526 | 81 | 109 | 2.0 | 7.0 | 0.00 | 0.00 | 0.00 | 71 | 1015.1 |
| 20260905170023 | 79 | 119 | 1.0 | 7.0 | 0.00 | 0.00 | 0.00 | 72 | 1015.0 |
| 20260905164517 | 78 | 180 | 5.0 | 8.0 | 0.00 | 0.00 | 0.00 | 75 | 1014.9 |
| 20260905163013 | 78 | 123 | 4.0 | 9.0 | 0.00 | 0.00 | 0.00 | 76 | 1014.9 |
| 20260905161506 | 77 | 107 | 1.0 | 8.0 | 0.00 | 0.00 | 0.00 | 78 | 1014.8 |
| 20260905160007 | 76 | 119 | 3.0 | 7.0 | 0.00 | 0.00 | 0.00 | 79 | 1014.6 |
| 20260905154603 | 77 | 92 | 4.0 | 8.0 | 0.00 | 0.00 | 0.00 | 79 | 1014.6 |
| 20260905153059 | 75 | 111 | 1.0 | 6.0 | 0.00 | 0.00 | 0.00 | 81 | 1014.7 |
| 20260905151559 | 75 | 118 | 1.0 | 5.0 | 0.00 | 0.00 | 0.00 | 82 | 1014.9 |
| 20260905150101 | 74 | 109 | 0.0 | 4.0 | 0.00 | 0.00 | 0.00 | 83 | 1014.8 |
| 20260905144556 | 74 | 159 | 1.0 | 5.0 | 0.00 | 0.00 | 0.00 | 83 | 1014.6 |
| 20260905143026 | 74 | 148 | 1.0 | 8.0 | 0.00 | 0.00 | 0.00 | 83 | 1014.3 |
| 20260905141524 | 74 | 121 | 1.0 | 4.0 | 0.00 | 0.00 | 0.00 | 84 | 1014.1 |
| 20260905141522 | 74 | 117 | 1.0 | 4.0 | 0.00 | 0.00 | 0.00 | 84 | 1014.1 |